Terminal Aerodrome Forecast
Issued by NWS Tuscon, AZ

Home | Current Version | Previous Version | Text Only | Print | Product List | Glossary On
Versions: 1 2 3 4 5 6 7 8 9 10 11 12 13 14 15
000
FTUS45 KTWC 202300
TAFTUS
TAF
KTUS 202337Z 2100/2124 35004KT P6SM SCT090
     FM210500 14008KT P6SM SKC=

USA.gov is the U.S. government's official web portal to all federal, state and local government web resources and services.